Location: Roland
(31.1349°N, 85.4372°W)
Time: 17:46:37
(UTC+00:00)

SR - Pass Details

Date: 15 April 2021
Orbit: 573 x 882 km, 66.7° (Epoch: 12 May)

Event Time Altitude Azimuth Distance (km) Brightness Sun altitude
Rises 12:12:05 0° 153° (SSE) 3,186 ? 11.6°
Reaches altitude 10° 12:16:02 10° 123° (ESE) 2,344 ? 12.4°
Maximum altitude 12:17:59 12° 101° (ESE) 2,243 ? 12.8°
Drops below altitude 10° 12:20:00 10° 80° (E) 2,417 ? 13.3°
Sets 12:24:13 0° 51° (NE) 3,415 ? 14.2°
